This demonstration page uses our WeatherBlox Daily Observations layout. Learn more.

Left ArrowRight Arrow

41.86663, -103.66717

Hourly Observations for February 7, 2019

Temp ( °F °C ) Dew Point ( °F °C ) Humidity (%) Winds ( mph kmh ) Pressure ( in mb ) Visibility ( mi km ) Precip ( " mm )
12:53 am 00:53 Cloudy -1 -18.3 -9 -22.8 68 68 NNW 16 26 30.31 1026 10 16 N/A
1:53 am 01:53 Mostly Cloudy -3 -19.4 -10 -23.3 71 71 NW 12 19 30.32 1027 10 16 N/A
2:53 am 02:53 Clear -8 -22.2 -14 -25.6 74 74 NW 8 13 30.34 1027 10 16 N/A
3:53 am 03:53 Mostly Clear -8 -22.2 -14 -25.6 74 74 NW 13 20 30.34 1028 10 16 N/A
4:53 am 04:53 Mostly Cloudy -9 -22.8 -14 -25.6 78 78 NNW 9 15 30.37 1029 7 11 N/A
5:53 am 05:53 Mostly Cloudy -9 -22.8 -13 -25 82 82 NW 3 6 30.39 1029 10 16 N/A
6:53 am 06:53 Mostly Cloudy -7 -21.7 -11 -23.9 82 82 WNW 6 9 30.40 1029 9 14 N/A
7:53 am 07:53 Sunny -5 -20.6 -10 -23.3 79 79 W 9 15 30.42 1030 10 16 N/A
8:53 am 08:53 Sunny -3 -19.4 -11 -23.9 68 68 WNW 15 24 30.43 1031 10 16 N/A
9:53 am 09:53 Sunny -1 -18.3 -10 -23.3 65 65 WNW 13 20 30.45 1031 10 16 N/A
10:53 am 10:53 Sunny 1 -17.2 -8 -22.2 65 65 NW 14 22 30.44 1031 10 16 N/A
11:53 am 11:53 Sunny 6 -14.4 -4 -20 63 63 NW 16 26 30.40 1030 10 16 N/A
12:53 pm 12:53 Sunny 4 -15.6 -5 -20.6 66 66 W 8 13 30.40 1029 10 16 N/A
1:53 pm 13:53 Sunny 7 -13.9 -3 -19.4 63 63 W 12 19 30.40 1030 10 16 N/A
2:53 pm 14:53 Sunny 9 -12.8 -1 -18.3 64 64 W 10 17 30.41 1030 10 16 N/A
3:53 pm 15:53 Sunny 10 -12.2 -1 -18.3 61 61 WNW 7 11 30.43 1030 10 16 N/A
4:53 pm 16:53 Sunny 7 -13.9 -3 -19.4 63 63 W 3 6 30.45 1031 10 16 N/A
5:53 pm 17:53 Clear 4 -15.6 -4 -20 69 69 W 7 11 30.47 1032 10 16 N/A
6:53 pm 18:53 Clear -2 -18.9 -5 -20.6 87 87 N 6 9 30.51 1033 10 16 N/A
7:53 pm 19:53 Clear -4 -20 -8 -22.2 83 83 N 8 13 30.52 1034 10 16 N/A
8:53 pm 20:53 Clear -4 -20 -9 -22.8 79 79 N N/A 30.53 1034 10 16 N/A
9:53 pm 21:53 Clear -9 -22.8 -12 -24.4 87 87 NNW 5 7 30.54 1034 10 16 N/A
10:53 pm 22:53 Clear -10 -23.3 -15 -26.1 78 78 NNW 6 9 30.53 1034 10 16 N/A
11:53 pm 23:53 Clear -13 -25 -18 -27.8 78 78 E 5 7 30.54 1034 10 16 N/A

Powered by AerisWeather